Home   Weather   Langevåg   Past weeks

Flag for Norway Past Weather in Langevåg, Norway — Yesterday and Last 2 Weeks

Now
37 °F

Partly cloudy.


Feels Like: 31 °F
Forecast: 42 / 52 °F
Wind: 8 mph from Southeast

Location: Alesund / Vigra

Current Time: Dec 6, 2016 at 6:56:53 am

Latest Report: Dec 6, 2016 at 6:20 am


Visibility: N/A

Pressure: 30.30 "Hg

Humidity: 87%

Dew Point: 34 °F

Location of LangevågLocation

Past Weather in Langevåg — Graph

°F

Langevåg Temperature Yesterday

Maximum temperature yesterday: 48 °F (at 12:20 am)
Minimum temperature yesterday: 36 °F (at 7:20 pm)
Average temperature yesterday: 42 °F

High & Low Weather Summary for the Past Weeks

 TemperatureHumidityPressure
High52 °F (Nov 25, 3:50 pm)100% (Nov 23, 5:20 am)30.48 "Hg (Nov 23, 5:20 am)
Low30 °F (Nov 21, 9:20 pm)53% (Nov 26, 11:20 pm)29.39 "Hg (Nov 21, 5:20 am)
Average42 °F81%29.99 "Hg
* Reported Nov 21 5:20 am — Dec 6 5:20 am, Langevåg, Weather by CustomWeather, © 2016

Note: Actual official high and low records may vary slightly from our data, if they occured in-between our weather recording intervals... More about our weather records

Advertising

Langevåg Weather History for the Previous 24 Hours

Scroll right to see more
 ConditionsComfort  
Time TempWeatherWind HumidityBarometerVisibility
5:20 am
Tue, Dec 6
37 °FOvercast.8 mph93%30.30 "HgN/A
4:50 am37 °FPassing clouds.6 mph93%30.30 "HgN/A
4:20 am37 °FPartly cloudy.7 mph87%30.30 "HgN/A
3:50 am37 °FPassing clouds.7 mph93%30.30 "HgN/A
3:20 am37 °FMostly cloudy.7 mph93%30.30 "HgN/A
2:50 am39 °FOvercast.7 mph81%30.30 "HgN/A
2:20 am39 °FPassing clouds.5 mph81%30.30 "HgN/A
1:50 am39 °FMostly cloudy.6 mph81%30.30 "HgN/A
1:20 am37 °FMostly cloudy.5 mph87%30.30 "HgN/A
12:50 am39 °FMostly cloudy.6 mph81%30.27 "HgN/A
12:20 am39 °FPartly cloudy.7 mph87%30.27 "Hg6 mi
11:50 pm
Mon, Dec 5
39 °FMostly cloudy.7 mph87%30.27 "HgN/A
11:20 pm39 °FPartly cloudy.8 mph81%30.27 "HgN/A
10:50 pm37 °FPassing clouds.7 mph87%30.24 "HgN/A
10:20 pm36 °FPassing clouds.5 mph87%30.24 "HgN/A
9:50 pm37 °FPassing clouds.6 mph81%30.24 "HgN/A
9:20 pm39 °FPassing clouds.9 mph81%30.24 "HgN/A
8:50 pm37 °FPartly cloudy.7 mph87%30.24 "HgN/A
8:20 pm36 °FPartly cloudy.5 mph93%30.24 "HgN/A
7:50 pm36 °FPartly cloudy.3 mph87%30.24 "HgN/A
7:20 pm36 °FScattered showers. Passing clouds.3 mph87%30.24 "HgN/A
6:50 pm39 °FPassing clouds.5 mph75%30.21 "HgN/A
6:20 pm39 °FPassing clouds.7 mph81%30.21 "HgN/A
5:50 pm39 °FPassing clouds.6 mph75%30.21 "HgN/A
5:20 pm39 °FPassing clouds.8 mph81%30.21 "HgN/A
4:50 pm41 °FScattered showers. Passing clouds.6 mph76%30.21 "HgN/A
4:20 pm41 °FScattered showers. Passing clouds.7 mph70%30.21 "HgN/A
3:50 pm41 °FScattered showers. Passing clouds.7 mph66%30.18 "HgN/A
3:20 pm43 °FPassing clouds.8 mph66%30.18 "HgN/A
2:50 pm43 °FBroken clouds.8 mph66%30.18 "HgN/A
2:20 pm43 °FBroken clouds.8 mph71%30.15 "HgN/A
1:50 pm43 °FScattered clouds.9 mph71%30.15 "HgN/A
12:50 pm43 °FPartly sunny.7 mph81%30.15 "HgN/A
12:20 pm43 °FLight rain. Broken clouds.6 mph76%30.15 "HgN/A
11:50 am43 °FBroken clouds.5 mph76%30.12 "HgN/A
11:20 am43 °FBroken clouds.8 mph76%30.12 "HgN/A
10:50 am43 °FPartly sunny.7 mph76%30.12 "HgN/A
10:20 am45 °FPartly sunny.8 mph66%30.09 "HgN/A
9:50 am45 °FPartly sunny.8 mph76%30.09 "HgN/A
9:20 am45 °FPassing clouds.7 mph76%30.09 "HgN/A
8:50 am45 °FPartly cloudy.7 mph81%30.09 "HgN/A
8:20 am43 °FPassing clouds.5 mph93%30.07 "HgN/A
7:50 am45 °FPassing clouds.5 mph87%30.07 "HgN/A
7:20 am45 °FPassing clouds.7 mph87%30.07 "HgN/A
6:50 am45 °FPartly cloudy.8 mph87%30.07 "HgN/A
6:20 am45 °FPartly cloudy.9 mph93%30.04 "HgN/A
Weather by CustomWeather, © 2016

See weather overviewHow to use our weather pages